Flag for Germany Weather past 2 weeks in Bornheim (Rheinland), North Rhine-Westphalia, Germany

Now
64 °F

Overcast.


Feels Like: 64 °F
Forecast: 57 / 72 °F
Wind: 3 mph from Northeast

Location: Bonn-Hangelar

Current Time: Jul 24, 2014 at 8:37:53 PM

Latest Report: Jul 24, 2014 at 8:00 PM


Visibility: 19 mi

Pressure: 29.94 "Hg

Humidity: 87%

Dew point: 60 °F

Location of Bornheim (Rheinland)Location

Historic Weather in Bornheim (Rheinland) — Graph

°F

Bornheim (Rheinland) temperature yesterday

Maximum temperature yesterday: 83 °F (at 4:00 PM)
Minimum temperature yesterday: 62 °F (at 6:00 AM)
Average temperature yesterday: 72 °F

Past Weeks' High & Low Weather Summary

 TemperatureHumidityPressure
High93 °F (Jul 19, 5:00 PM)100% (Jul 10, 3:00 AM)30.20 "Hg (Jul 10, 3:00 AM)
Low54 °F (Jul 15, 2:00 AM)23% (Jul 19, 3:00 PM)29.71 "Hg (Jul 9, 7:00 PM)
Average68 °F77%29.96 "Hg
* Reported Jul 9 7:00 PM — Jul 24 7:00 PM, Bornheim (Rheinland), Weather by CustomWeather, © 2014

Note: Actual official high and low records may vary slightly from our data, if they occured in-between our weather recording intervals... More about our weather records

Advertising

Bornheim (Rheinland) weather history for previous 24 hours

 ConditionsComfort  
Time TempWeatherWind HumidityBarometerVisibility
7:00 PM
Jul 24
65 °FThunderstorms. Overcast.3 mph83%29.93 "Hg25 mi
6:00 PM65 °FThundershowers. Partly sunny.5 mph81%29.94 "Hg22 mi
5:00 PM72 °FThunderstorms. Partly sunny.8 mph57%29.96 "Hg22 mi
4:00 PM75 °FPartly sunny.6 mph51%29.92 "Hg28 mi
3:00 PM77 °FPartly sunny.3 mph44%29.93 "Hg22 mi
2:00 PM77 °FSunny.3 mph45%29.94 "Hg18 mi
1:00 PM75 °FPartly sunny.5 mph51%29.95 "Hg19 mi
12:00 PM74 °FPartly sunny.3 mph53%29.96 "Hg19 mi
11:00 AM71 °FPartly sunny.3 mph61%29.96 "Hg19 mi
10:00 AM68 °FPartly sunny.5 mph72%29.98 "Hg19 mi
9:00 AM66 °FScattered clouds.5 mph79%29.97 "Hg19 mi
8:00 AM64 °FPassing clouds.3 mph88%29.97 "Hg12 mi
7:00 AM61 °FPassing clouds.3 mph93%29.97 "Hg12 mi
6:00 AM60 °FPassing clouds.2 mph95%29.98 "Hg12 mi
5:00 AM61 °FFog.3 mph96%29.98 "Hg2 mi
4:00 AM64 °FClear.2 mph88%29.98 "Hg6 mi
3:00 AM64 °FClear.1 mph88%29.99 "Hg6 mi
2:00 AM64 °FClear.2 mph88%30.00 "Hg7 mi
1:00 AM66 °FClear.2 mph85%30.00 "Hg9 mi
12:00 AM68 °FOvercast.2 mph80%30.01 "Hg9 mi
11:00 PM
Jul 23
71 °FOvercast.2 mph70%30.01 "Hg14 mi
10:00 PM69 °FRain. Passing clouds.8 mph74%30.01 "Hg3 mi
9:00 PM74 °FPassing clouds.1 mph68%29.98 "Hg28 mi
8:00 PM77 °FPassing clouds.3 mph61%29.98 "Hg28 mi
Weather by CustomWeather, © 2014

See weather overviewHow to use our weather pages